Livingston, MT

9:37 AM MST on January 22, 2018 (GMT -0700)
Mission

Weather History for KLVM - June, 2013

Change the Weather History Date:

Saturday, June 22, 2013

  Actual Average Record
Temperature  
Mean Temperature 54 °F 61 °F  
Max Temperature 73 °F 76 °F 94 °F (1954)
Min Temperature 39 °F 45 °F 36 °F (1989)
Degree Days  
Heating Degree Days 11 5  
Month to date heating degree days 174  
Since 1 June heating degree days 174  
Since 1 July heating degree days 7570  
Cooling Degree Days 0 1  
Month to date cooling degree days 6  
Year to date cooling degree days 7  
Since 1 June cooling degree days 6  
Growing Degree Days 4 (Base 50)    
Moisture  
Dew Point 40 °F    
Average Humidity 63    
Maximum Humidity 93    
Minimum Humidity 26    
Precipitation  
Precipitation 0.02 in 0.08 in 0.56 in (1987)
Month to date precipitation 1.90  
Year to date precipitation 8.16  
Sea Level Pressure  
Sea Level Pressure 29.97 in    
Wind  
Wind Speed 8 mph (WSW)    
Max Wind Speed 37 mph    
Max Gust Speed 48 mph    
Visibility 10 miles    
Events Thunderstorm    
T = Trace of Precipitation, MM = Missing Value Source: NWS Daily Summary

Daily Weather History Graph

Daily Weather History Graph

Search for Another Location

Airport or City:

Trip Planner

Search our weather history database for the weather conditions in past years. The results will help you decide how hot, cold, wet, or windy it might be!

Date:

Astronomy

Jun. 22, 2013 Rise Set
Actual Time 5:32 AM MDT 9:15 PM MDT
Civil Twilight 4:54 AM MDT 9:53 PM MDT
Nautical Twilight 4:02 AM MDT 10:44 PM MDT
Astronomical Twilight 2:52 AM MDT 11:55 PM MDT
Moon 8:29 PM MDT 4:52 AM MDT
Length of Visible Light 16h 59m
Length of Day
15h 42m
Waxing Gibbous, 99% of the Moon is Illuminated
Jun 22
Waxing Gibbous
Jun 23
Full
Jun 29
Last Quarter
Jul 8
New
Jul 15
First Quarter

Hourly Weather History & Observations

Time (MDT) Temp. Windchill Dew Point Humidity Pressure Visibility Wind Dir Wind Speed Gust Speed Precip Events Conditions
12:53 AM 50.0 °F - 43.0 °F 77% 29.99 in 10.0 mi ESE 3.5 mph - N/A   Partly Cloudy
1:53 AM 48.9 °F - 43.0 °F 80% 29.96 in 10.0 mi ESE 8.1 mph - N/A   Clear
2:53 AM 48.9 °F - 43.0 °F 80% 29.96 in 10.0 mi ESE 5.8 mph - N/A   Clear
3:53 AM 42.1 °F - 37.9 °F 85% 29.98 in 10.0 mi Calm Calm - N/A   Clear
4:42 AM 39.2 °F - 37.4 °F 93% 30.03 in 10.0 mi Calm Calm - N/A   Overcast
4:53 AM 42.1 °F 40.2 °F 39.0 °F 89% 29.98 in 10.0 mi West 3.5 mph - N/A   Overcast
5:53 AM 46.0 °F - 41.0 °F 83% 29.98 in 10.0 mi Calm Calm - N/A   Overcast
6:53 AM 46.0 °F 43.9 °F 41.0 °F 83% 29.99 in 10.0 mi NW 4.6 mph - N/A   Overcast
7:53 AM 48.9 °F - 43.0 °F 80% 29.98 in 10.0 mi Calm Calm - N/A   Overcast
8:17 AM 51.8 °F - 42.8 °F 71% 30.03 in 10.0 mi Calm Calm - N/A   Mostly Cloudy
8:53 AM 53.1 °F - 44.1 °F 71% 29.96 in 10.0 mi Calm Calm - N/A   Mostly Cloudy
9:53 AM 57.9 °F - 43.0 °F 58% 29.96 in 10.0 mi Variable 4.6 mph - N/A   Mostly Cloudy
10:53 AM 61.0 °F - 42.1 °F 50% 29.96 in 10.0 mi West 13.8 mph - N/A   Overcast
11:53 AM 61.0 °F - 37.9 °F 42% 29.96 in 10.0 mi WSW 12.7 mph - 0.00 in   Scattered Clouds
12:53 PM 63.0 °F - 34.0 °F 34% 29.92 in 10.0 mi SSW 24.2 mph 29.9 mph N/A   Clear
1:53 PM 69.1 °F - 33.1 °F 26% 29.88 in 10.0 mi SW 23.0 mph 29.9 mph N/A   Clear
2:53 PM 64.0 °F - 34.0 °F 33% 29.90 in 10.0 mi WSW 36.8 mph 47.2 mph N/A   Mostly Cloudy
3:25 PM 59.0 °F - 37.4 °F 45% 29.98 in 10.0 mi West 34.5 mph 48.3 mph N/A Thunderstorm Scattered Clouds
3:53 PM 55.0 °F - 37.9 °F 53% 29.96 in 10.0 mi West 27.6 mph 39.1 mph N/A   Mostly Cloudy
4:53 PM 55.9 °F - 39.0 °F 53% 29.98 in 10.0 mi West 15.0 mph - N/A   Mostly Cloudy
5:53 PM 62.1 °F - 39.9 °F 44% 29.95 in 10.0 mi West 10.4 mph - 0.00 in   Mostly Cloudy
6:46 PM 62.6 °F - 37.4 °F 39% 30.00 in 10.0 mi West 15.0 mph - N/A   Clear
6:53 PM 63.0 °F - 37.9 °F 40% 29.94 in 10.0 mi West 17.3 mph - N/A   Clear
7:53 PM 59.0 °F - 39.0 °F 48% 29.97 in 10.0 mi NW 6.9 mph - N/A   Overcast
8:53 PM 55.9 °F - 41.0 °F 57% 29.99 in 10.0 mi West 4.6 mph - N/A   Mostly Cloudy
9:53 PM 50.0 °F - 44.1 °F 80% 30.00 in 10.0 mi South 8.1 mph - 0.02 in   Scattered Clouds
10:53 PM 50.0 °F - 44.1 °F 80% 29.99 in 10.0 mi West 8.1 mph - N/A   Mostly Cloudy
11:53 PM 48.9 °F - 42.1 °F 77% 29.98 in 10.0 mi Calm Calm - N/A   Mostly Cloudy